Location: eljas
(40.1958°N, 6.8661°W)
Time: 22:39:28
(UTC+02:00)

ISS - All Passes

Search period start: 27 September 2016 00:00
Search period end: 07 October 2016 00:00
Orbit: 400 x 410 km, 51.6° (Epoch: 28 September)

Date Brightness Start Highest point End Pass type
(mag) Time Alt. Az. Time Alt. Az. Time Alt. Az.
27 Sep - 01:27:08 10° NNW 01:28:32 12° N 01:29:55 10° NNE night (unlit)
27 Sep - 03:04:15 10° NNW 03:06:07 14° NNE 03:07:59 10° NE night (unlit)
27 Sep - 04:40:03 10° NW 04:43:14 46° NNE 04:46:26 10° ESE night (unlit)
27 Sep - 06:17:07 10° W 06:19:30 19° SW 06:21:53 10° S night (unlit)
27 Sep - 21:20:30 10° S 21:22:48 18° SE 21:25:07 10° E visible
27 Sep - 22:55:53 10° WSW 22:59:03 47° NNW 23:02:13 10° NE visible
28 Sep - 00:34:19 10° NW 00:36:10 14° NNW 00:38:01 10° NNE night (unlit)
28 Sep - 02:12:22 10° NNW 02:13:45 12° N 02:15:09 10° NNE night (unlit)
28 Sep - 03:48:10 10° NW 03:51:05 28° NNE 03:54:00 10° E night (unlit)
28 Sep - 05:24:34 10° WNW 05:27:37 35° SW 05:30:39 10° SSE night (unlit)
28 Sep - 22:03:42 10° SW 22:06:58 88° NW 22:10:14 10° NE visible
28 Sep - 23:41:30 10° WNW 23:43:50 18° NNW 23:46:10 10° NNE night (unlit)
29 Sep - 01:20:14 10° NNW 01:21:22 11° N 01:22:28 10° NNE night (unlit)
29 Sep - 02:56:19 10° NNW 02:58:50 20° NNE 03:01:21 10° ENE night (unlit)
29 Sep - 04:32:21 10° WNW 04:35:37 73° SW 04:38:53 10° SE night (unlit)
29 Sep - 21:11:49 10° SSW 21:14:56 45° SE 21:18:05 10° ENE visible
29 Sep - 22:48:48 10° W 22:51:34 25° NNW 22:54:20 10° NNE visible
30 Sep - 00:27:42 10° NNW 00:28:56 12° N 00:30:11 10° NNE night (unlit)
30 Sep - 02:04:29 10° NNW 02:06:31 15° NNE 02:08:33 10° NE night (unlit)
30 Sep - 03:40:18 10° NW 03:43:33 58° NE 03:46:48 10° ESE night (unlit)
30 Sep - 05:17:47 10° W 05:19:42 15° SW 05:21:37 10° SSW night (unlit)
30 Sep - 20:20:21 10° S 20:22:59 23° SE 20:25:38 10° ENE daylight
30 Sep - 21:56:15 10° W 21:59:20 38° NNW 22:02:25 10° NE visible
30 Sep - 23:34:52 10° NW 23:36:32 13° N 23:38:11 10° NNE visible
01 Oct - 01:12:36 10° NNW 01:14:08 13° N 01:15:40 10° NE night (unlit)
01 Oct - 02:48:20 10° NW 02:51:23 34° NNE 02:54:25 10° E night (unlit)
01 Oct - 04:24:57 10° WNW 04:27:48 28° SW 04:30:39 10° SSE night (unlit)
01 Oct - 19:29:46 10° SSE 19:31:07 12° SE 19:32:26 10° ESE daylight
01 Oct - 21:03:57 10° WSW 21:07:11 69° NW 21:10:26 10° NE visible
01 Oct - 22:42:00 10° WNW 22:44:09 16° NNW 22:46:18 10° NNE visible
02 Oct - 00:20:32 10° NNW 00:21:42 11° N 00:22:52 10° NNE night (unlit)
02 Oct - 01:56:27 10° NNW 01:59:07 22° NNE 02:01:48 10° ENE night (unlit)
02 Oct - 03:32:35 10° WNW 03:35:49 55° SW 03:39:01 10° SE night (unlit)
02 Oct - 20:11:54 10° SW 20:15:05 59° SE 20:18:19 10° ENE daylight
02 Oct - 21:49:12 10° WNW 21:51:48 22° NNW 21:54:25 10° NNE visible
02 Oct - 23:28:06 10° NNW 23:29:15 11° N 23:30:23 10° NNE visible
03 Oct - 01:04:34 10° NNW 01:06:47 17° NNE 01:09:00 10° ENE night (unlit)
03 Oct - 02:40:26 10° NW 02:43:44 74° NE 02:47:00 10° ESE night (unlit)
03 Oct - 04:18:39 10° WSW 04:19:47 11° SW 04:20:54 10° SSW night (unlit)
03 Oct - 19:20:13 10° SSW 19:23:04 29° SE 19:25:57 10° ENE daylight
03 Oct - 20:56:33 10° W 20:59:31 32° NNW 21:02:30 10° NE visible
03 Oct - 22:35:19 10° NW 22:36:47 12° N 22:38:15 10° NNE visible
04 Oct - 00:12:40 10° NNW 00:14:23 13° NNE 00:16:05 10° NE night (unlit)
04 Oct - 01:48:25 10° NW 01:51:33 40° NNE 01:54:41 10° ESE night (unlit)
04 Oct - 03:25:16 10° W 03:27:53 22° SW 03:30:28 10° S night (unlit)
04 Oct - 18:29:08 10° SSE 18:31:07 15° SE 18:33:08 10° E daylight
04 Oct - 20:04:06 10° WSW 20:07:18 54° NNW 20:10:30 10° NE daylight
04 Oct - 21:42:24 10° NW 21:44:21 15° NNW 21:46:18 10° NNE visible
04 Oct - 23:20:40 10° NNW 23:21:55 12° N 23:23:11 10° NNE visible
05 Oct - 00:56:28 10° NNW 00:59:17 26° NNE 01:02:06 10° E night (unlit)
05 Oct - 02:32:44 10° WNW 02:35:52 42° SW 02:38:59 10° SSE night (unlit)
05 Oct - 19:11:54 10° SW 19:15:09 78° SE 19:18:24 10° NE daylight
05 Oct - 20:49:31 10° WNW 20:51:57 19° NNW 20:54:24 10° NNE visible
05 Oct - 22:28:21 10° NNW 22:29:26 11° N 22:30:30 10° NNE visible
06 Oct - 00:04:33 10° NNW 00:06:56 18° NNE 00:09:19 10° ENE night (unlit)
06 Oct - 01:40:30 10° NW 01:43:47 86° SW 01:47:03 10° SE night (unlit)
06 Oct - 18:20:01 10° SSW 18:23:04 37° SE 18:26:06 10° ENE daylight
06 Oct - 19:56:46 10° W 19:59:35 27° NNW 20:02:27 10° NE daylight
06 Oct - 21:35:38 10° NNW 21:36:56 12° N 21:38:14 10° NNE visible
06 Oct - 23:12:37 10° NNW 23:14:30 14° NNE 23:16:24 10° NE visible
